Location: Czu?�w
(50.1404°N, 18.9919°E)
Time: 03:44:32
(UTC+00:00)

Cosmos 1825 - Pass Details

Date: 27 October 2020
Orbit: 502 x 508 km, 82.5° (Epoch: 24 November)

Event Time Altitude Azimuth Distance (km) Brightness Sun altitude
Rises 16:10:42 0° 7° (N) 2,628 5.6 -7.3°
Reaches altitude 10° 16:14:11 10° 41° (NE) 1,734 4.4 -7.9°
Maximum altitude 16:15:34 12° 62° (ENE) 1,628 4.1 -8.1°
Enters shadow 16:16:31 11° 78° (ENE) 1,675 4.1 -8.2°
